[[{"header":{"parameterUnit":"m.s-1","parameterCategory":1,"la1":30.2991,"la2":30.254,"lo1":-89.0895,"lo2":-89.0444,"dy":0.0017,"dx":0.0017,"nx":28,"ny":28,"refTime":"2023-10-01T21:00:00:Z","depth":0,"parameterNumber":2,"parameterNumberName":"U-component_of_WINDS"},"data":[0,0,0,0,0,0,0,0,0,0,0,0,0,0,0,0,0,0,0,0,0,0,0,0,0,0,0,0,0,0,0,0,0,0,0,0,0,0,0,0,0,0,0,0,0,0,0,0,0,0,0,0,0,0,0,0,0,0,-4.6439,-4.6438,0,-4.6412,-4.6412,-4.6412,-4.6268,-4.6265,-4.6261,-4.6258,-4.6234,-4.6236,-4.6239,0,0,0,0,0,0,0,0,0,0,0,0,0,-4.6369,-4.6371,-4.6439,-4.6438,-4.6438,-4.6412,-4.6412,-4.6411,-4.6269,-4.6265,-4.626,-4.6256,-4.6233,-4.6236,-4.6239,0,0,0,0,0,0,0,0,0,0,0,0,0,-4.6377,-4.6372,-4.6439,-4.6364,-4.6357,-4.6412,-4.6412,-4.6411,-4.627,-4.6264,-4.6259,-4.6254,-4.6232,-4.6236,-4.6239,-4.6366,0,0,-4.6251,-4.6253,0,0,0,0,0,0,0,0,-4.6377,-4.638,-4.6375,-4.6369,-4.6361,-4.6338,-4.6378,-4.6396,-4.6271,-4.6303,-4.6258,-4.6252,-4.6273,-4.6273,-4.6279,-4.6365,-4.6364,-4.6251,-4.6254,-4.6255,-4.6256,0,0,0,0,0,0,0,-4.6376,-4.638,-4.6428,-4.6375,-4.6367,-4.6332,-4.6328,-4.6381,-4.6317,-4.63,-4.6289,-4.6288,-4.6268,-4.6276,-4.6278,-4.6364,-4.6251,-4.6255,-4.6257,-4.6259,-4.6555,-4.656,0,0,0,0,0,0,-4.6386,-4.638,-4.6429,-4.6427,-4.6356,-4.6338,-4.6333,-4.6351,-4.6316,-4.6306,-4.6292,-4.6281,-4.6272,-4.6273,-4.6276,-4.6424,-4.6255,-4.6259,-4.6261,-4.6549,-4.6556,-4.6562,0,0,0,0,0,0,-4.6385,-4.6392,-4.643,-4.6401,-4.6403,-4.6344,-4.6366,-4.6353,-4.6361,-4.631,-4.6299,-4.6312,-4.6268,-4.6271,-4.6345,-4.6421,-4.6261,-4.6264,-4.6543,-4.6551,-4.6559,-4.672,0,0,0,0,0,0,-4.6384,-4.6392,-4.6439,-4.6403,-4.6405,-4.6499,-4.6371,-4.6356,-4.6367,-4.6353,-4.6326,-4.6316,-4.6264,-4.634,-4.6349,-4.6424,-4.6267,-4.6536,-4.6546,-4.6556,-4.6708,-4.6733,-4.6754,0,0,0,0,0,-4.6382,-4.6485,-4.6442,-4.6448,-4.6462,-4.6503,-4.6505,-4.6442,-4.6374,-4.6421,-4.6389,-4.6317,-4.6412,-4.6349,-4.6358,-4.6435,-4.653,-4.6543,-4.6555,-4.6697,-4.6728,-4.6754,0,0,0,0,0,0,-4.6531,-4.6479,-4.643,-4.6525,-4.652,-4.6479,-4.6536,-4.6476,-4.649,-4.6476,-4.6398,-4.6393,-4.648,-4.6464,-4.6396,-4.6557,-4.6459,-4.6474,-4.6564,-4.6592,-4.6615,-4.6618,-4.627,0,0,0,0,0,-4.6575,-4.6612,-4.6564,-4.6653,-4.6653,-4.6596,-4.6611,-4.6563,-4.6555,-4.6552,-4.6525,-4.6521,-4.6549,-4.657,-4.6593,-4.6705,-4.6698,-4.6762,-4.6785,-4.6805,-4.6819,-4.6879,-4.6908,-4.6603,-4.6603,-4.6603,0,0,-4.6666,-4.6642,-4.667,-4.6682,-4.6672,-4.6714,-4.6594,-4.6642,-4.6673,-4.6559,-4.6628,-4.6609,-4.6599,-4.6693,-4.6733,-4.6683,-4.6902,-4.6821,-4.6837,-4.684,-4.6895,-4.6924,-4.695,-4.6612,-4.661,-4.6609,0,0,-4.6854,-4.6839,-4.6911,-4.6905,-4.6891,-4.6853,-4.6871,-4.684,-4.6823,-4.689,-4.6807,-4.6842,-4.6893,-4.689,-4.6895,-4.7084,-4.702,-4.7094,-4.7217,-4.7276,-4.73,-4.7321,-4.7391,-4.7416,-4.7108,-4.7109,-4.7109,0,-4.6969,-4.7027,-4.6957,-4.7011,-4.702,-4.6919,-4.6993,-4.699,-4.6986,-4.6995,-4.6939,-4.7001,-4.6987,-4.7081,-4.7127,-4.7134,-4.7154,-4.7097,-4.7302,-4.7323,-4.7341,-4.7407,-4.7433,-4.7118,-4.7117,-4.7116,-4.7115,0,-4.717,-4.7212,-4.7272,-4.7271,-4.7286,-4.7351,-4.7292,-4.7317,-4.7268,-4.7237,-4.7308,-4.7288,-4.7307,-4.7325,-4.7278,-4.7413,-4.7383,-4.7316,-4.7216,-4.7381,-4.7441,-4.7465,-4.7131,-4.7128,-4.7125,-4.7123,0,0,-4.745,-4.741,-4.7434,-4.7433,-4.7412,-4.7443,-4.7504,-4.7522,-4.7546,-4.7547,-4.7597,-4.7643,-4.7582,-4.7588,-4.754,-4.7592,-4.7746,-4.7519,-4.7517,-4.7563,-4.7896,-4.7948,-4.7978,-4.7703,-4.7708,-4.7711,-4.7898,0,-4.763,-4.7731,-4.7671,-4.7781,-4.782,-4.7726,-4.7779,-4.7773,-4.7746,-4.7776,-4.7746,-4.7781,-4.7696,-4.7699,-4.7747,-4.7718,-4.7812,-4.7703,-4.7751,-4.7754,-4.7757,-4.8008,-4.8062,-4.8239,-4.792,-4.7924,-4.7927,0,-4.7854,-4.7865,-4.798,-4.7953,-4.7967,-4.8016,-4.8029,-4.8058,-4.8051,-4.8027,-4.8036,-4.7976,-4.8035,-4.7937,-4.8019,-4.7947,-4.7963,-4.7952,-4.7957,-4.796,-4.7851,-4.802,-4.8294,-4.8321,-4.7963,-4.796,-4.7958,0,-4.8049,-4.8092,-4.8167,-4.8169,-4.8139,-4.8176,-4.8166,-4.8153,-4.8169,-4.8181,-4.819,-4.8209,-4.822,-4.8237,-4.8185,-4.8118,-4.8275,-4.8172,-4.8259,-4.8261,-4.8297,-4.8296,-4.8579,-4.8306,-4.8306,-4.8305,-4.8305,0,-4.8257,-4.8331,-4.8254,-4.83,-4.8381,-4.8312,-4.8395,-4.8374,-4.8365,-4.8406,-4.8326,-4.8367,-4.8295,-4.833,-4.8289,-4.8365,-4.837,-4.8354,-4.8343,-4.8362,-4.8365,-4.8372,-4.8359,-4.8312,-4.8311,-4.8309,-4.8308,0,-4.8488,-4.8439,-4.8514,-4.8481,-4.8475,-4.8536,-4.8508,-4.855,-4.8518,-4.8572,-4.8581,-4.8532,-4.8568,-4.8518,-4.8549,-4.8522,-4.8627,-4.8596,-4.8629,-4.8621,-4.8712,-4.8705,-4.9011,-4.9048,-4.8751,-4.8754,-4.8756,0,-4.8624,-4.8679,-4.8653,-4.8675,-4.8669,-4.8705,-4.8721,-4.8657,-4.8677,-4.8674,-4.8717,-4.8747,-4.8767,-4.8831,-4.8799,-4.8823,-4.8793,-4.8899,-4.8797,-4.8815,-4.8797,-4.8795,-4.8801,-4.8921,-4.8924,-4.8927,-4.8929,0,-4.8873,-4.8846,-4.8871,-4.889,-4.8911,-4.8922,-4.8927,-4.895,-4.8882,-4.8909,-4.8946,-4.8962,-4.8995,-4.9027,-4.9043,-4.9034,-4.8972,-4.8962,-4.8984,-4.9004,-4.9022,-4.9015,-4.8688,-4.8955,-4.8953,-4.8951,-4.8949,-4.8948,-4.9061,-4.9106,-4.9095,-4.9127,-4.9124,-4.9132,-4.917,-4.9144,-4.9173,-4.9194,-4.9154,-4.9202,-4.9195,-4.9211,-4.9209,-4.9246,-4.9201,-4.9232,-4.924,-4.9249,-4.9264,-4.9016,-4.9249,-4.9248,-4.9247,-4.9247,-4.9246,0,-4.9306,-4.9295,-4.9325,-4.9335,-4.9361,-4.9299,-4.9303,-4.9329,-4.9371,-4.937,-4.9392,-4.9436,-4.9467,-4.9438,-4.9463,-4.9499,-4.9472,-4.9508,-4.9505,-4.9505,-4.9302,-4.9281,-4.953,-4.953,-4.953,-4.953,-4.953,-4.953,-4.9437,-4.9511,-4.9484,-4.9557,-4.9545,-4.959,-4.9598,-4.9605,-4.9604,-4.9656,-4.9681,-4.9662,-4.9651,-4.9675,-4.9702,-4.9693,-4.9707,-4.9754,-4.9735,-4.9547,-4.9519,-4.9492,-4.9472,-4.9757,-4.9758,-4.9934,-4.9936,-4.9937]},{"header":{"parameterUnit":"m.s-1","parameterCategory":1,"la1":30.2991,"la2":30.254,"lo1":-89.0895,"lo2":-89.0444,"dy":0.0017,"dx":0.0017,"nx":28,"ny":28,"refTime":"2023-10-01T21:00:00:Z","depth":0,"parameterNumber":3,"parameterNumberName":"V-component_of_WINDS"},"data":[0,0,0,0,0,0,0,0,0,0,0,0,0,0,0,0,0,0,0,0,0,0,0,0,0,0,0,0,0,0,0,0,0,0,0,0,0,0,0,0,0,0,0,0,0,0,0,0,0,0,0,0,0,0,0,0,0,0,1.1122,1.1122,0,1.1078,1.1078,1.1077,1.1097,1.1098,1.1099,1.11,1.1047,1.1045,1.1042,0,0,0,0,0,0,0,0,0,0,0,0,0,1.1216,1.1215,1.1122,1.1122,1.1121,1.1079,1.1078,1.1077,1.1096,1.1098,1.1099,1.11,1.1048,1.1045,1.1042,0,0,0,0,0,0,0,0,0,0,0,0,0,1.1174,1.1214,1.1122,1.1126,1.1126,1.1079,1.1078,1.1077,1.1096,1.1098,1.11,1.1101,1.1049,1.1045,1.1042,1.0986,0,0,1.103,1.1029,0,0,0,0,0,0,0,0,1.1176,1.1171,1.1126,1.1126,1.1125,1.1095,1.1092,1.1046,1.1096,1.1107,1.11,1.1102,1.1061,1.1057,1.1044,1.0984,1.0981,1.103,1.1028,1.1026,1.1025,0,0,0,0,0,0,0,1.1179,1.1173,1.1105,1.1125,1.1125,1.1128,1.1123,1.1083,1.1075,1.1106,1.1108,1.1103,1.1061,1.1048,1.1043,1.0981,1.103,1.1027,1.1025,1.1023,1.0872,1.087,0,0,0,0,0,0,1.1183,1.1175,1.1106,1.1103,1.1156,1.1125,1.112,1.1103,1.1076,1.1073,1.1101,1.1104,1.1053,1.1048,1.1042,1.0974,1.1026,1.1023,1.1021,1.0874,1.0871,1.0869,0,0,0,0,0,0,1.1185,1.1177,1.1108,1.114,1.1131,1.1121,1.1102,1.1101,1.1088,1.1072,1.107,1.109,1.1054,1.1047,1.1,1.0972,1.1021,1.1018,1.0876,1.0873,1.087,1.0839,0,0,0,0,0,0,1.1188,1.1178,1.1158,1.1139,1.1129,1.1069,1.11,1.1099,1.1082,1.1085,1.106,1.1058,1.1055,1.1006,1.0997,1.0968,1.1015,1.0878,1.0875,1.0871,1.0842,1.0835,1.0829,0,0,0,0,0,1.1191,1.1149,1.1156,1.1148,1.1105,1.1067,1.1062,1.1062,1.108,1.1059,1.1049,1.1059,1.0978,1.1001,1.0991,1.0961,1.088,1.0876,1.0872,1.0845,1.0836,1.0829,0,0,0,0,0,0,1.1161,1.1146,1.1155,1.1105,1.1088,1.1071,1.1044,1.1053,1.1027,1.103,1.103,1.1024,1.0975,1.0964,1.099,1.0906,1.0931,1.0925,1.0914,1.0906,1.09,1.0902,1.1012,0,0,0,0,0,1.1149,1.1122,1.111,1.1068,1.1059,1.1053,1.1037,1.1039,1.102,1.1011,1.0998,1.0977,1.0947,1.0926,1.0898,1.0842,1.0836,1.0816,1.081,1.0805,1.0798,1.0767,1.0758,1.0856,1.0856,1.0856,0,0,1.1123,1.1112,1.1094,1.1061,1.1048,1.1018,1.1046,1.1014,1.0991,1.1005,1.0961,1.0951,1.0927,1.0876,1.0852,1.0864,1.077,1.08,1.0796,1.0792,1.0762,1.0752,1.0744,1.0853,1.0854,1.0854,0,0,1.1059,1.105,1.1013,1.1,1.0981,1.0978,1.0969,1.0951,1.0946,1.0902,1.0913,1.0885,1.0833,1.0816,1.08,1.0734,1.0741,1.0725,1.0689,1.0659,1.0651,1.0644,1.0618,1.0609,1.0719,1.0719,1.0719,0,1.1028,1.0986,1.0992,1.0959,1.0944,1.096,1.0922,1.0908,1.0879,1.0867,1.0882,1.0819,1.0804,1.0748,1.0732,1.072,1.0708,1.0725,1.0652,1.0645,1.0639,1.0614,1.0605,1.0717,1.0717,1.0717,1.0717,0,1.0948,1.0919,1.0892,1.0866,1.0848,1.0813,1.0811,1.0792,1.0797,1.0792,1.0747,1.073,1.0698,1.0686,1.0689,1.0631,1.0639,1.0653,1.0678,1.0627,1.0604,1.0595,1.0714,1.0714,1.0715,1.0716,0,0,1.086,1.0842,1.0832,1.0821,1.0802,1.0778,1.0743,1.0715,1.0698,1.0679,1.0647,1.0605,1.0619,1.0601,1.0603,1.0576,1.0523,1.0594,1.0593,1.0579,1.0455,1.0442,1.0431,1.0529,1.0527,1.0526,1.0457,0,1.0794,1.0735,1.0741,1.0684,1.0656,1.0672,1.0642,1.0626,1.0621,1.0595,1.0589,1.0558,1.058,1.0569,1.0544,1.0535,1.0497,1.054,1.0497,1.0495,1.0499,1.042,1.0405,1.034,1.0448,1.0446,1.0445,0,1.0708,1.0688,1.0629,1.0616,1.0605,1.0577,1.0552,1.0528,1.0511,1.0509,1.0491,1.0497,1.046,1.049,1.0437,1.0466,1.0449,1.0442,1.044,1.0432,1.0465,1.0407,1.032,1.0309,1.0431,1.0432,1.0433,0,1.0647,1.0606,1.0566,1.0556,1.054,1.052,1.0512,1.0496,1.0479,1.0457,1.0446,1.0419,1.0403,1.0382,1.038,1.0402,1.0326,1.0356,1.0321,1.0321,1.0301,1.0302,1.0206,1.0296,1.0296,1.0296,1.0296,0,1.057,1.0532,1.0538,1.0512,1.0471,1.0478,1.0436,1.043,1.0416,1.0388,1.0401,1.0374,1.0376,1.0348,1.0347,1.0302,1.0296,1.0291,1.029,1.0288,1.0288,1.0274,1.0277,1.0294,1.0294,1.0295,1.0295,0,1.0493,1.0496,1.0452,1.0442,1.0439,1.0408,1.0398,1.0373,1.0371,1.0336,1.0328,1.0323,1.0291,1.0289,1.0252,1.0251,1.0196,1.0202,1.0203,1.0203,1.0167,1.0169,1.0057,1.0041,1.0144,1.0143,1.0142,0,1.0442,1.0414,1.0402,1.0386,1.0378,1.0351,1.0335,1.0341,1.0323,1.0303,1.0279,1.025,1.0226,1.0174,1.0166,1.0137,1.014,1.0103,1.0136,1.0134,1.0136,1.0137,1.0133,1.0095,1.0094,1.0093,1.0093,0,1.0351,1.0354,1.0332,1.031,1.0291,1.0274,1.0257,1.0243,1.0247,1.0226,1.0196,1.0178,1.0141,1.011,1.0083,1.0073,1.0082,1.0084,1.0073,1.0068,1.0069,1.0066,1.0182,1.0085,1.0085,1.0086,1.0086,1.0087,1.0283,1.0259,1.0247,1.0222,1.0211,1.0196,1.0173,1.0169,1.0145,1.0117,1.0122,1.0088,1.0071,1.0036,1.0024,0.9995,1.0007,0.9993,0.9989,0.9985,0.998,1.0077,0.999,0.9991,0.9991,0.9991,0.9991,0,1.019,1.0184,1.0161,1.014,1.0119,1.0136,1.0119,1.01,1.007,1.0056,1.0033,0.9998,0.9969,0.996,0.9931,0.991,0.9914,0.9902,0.9902,0.9899,0.9972,0.9982,0.99,0.99,0.99,0.99,0.99,0.99,1.0139,1.0099,1.0101,1.0055,1.005,1.0018,1.0007,0.9992,0.9981,0.9942,0.9919,0.9915,0.9902,0.9873,0.9847,0.9845,0.9832,0.9818,0.9817,0.9885,0.9894,0.9902,0.9912,0.9816,0.9816,0.9747,0.9746,0.9745]}]]